Change the Weather History Date:

Thursday, August 29, 2013

  Actual Average Record
Temperature  
Mean Temperature 62 °F 67 °F  
Max Temperature 65 °F 75 °F 93 °F (1953)
Min Temperature 58 °F 58 °F 38 °F (1931)
Degree Days  
Heating Degree Days 3 2  
Month to date heating degree days 12 21  
Since 1 June heating degree days 86 118  
Since 1 July heating degree days 19 35  
Cooling Degree Days 0 3  
Month to date cooling degree days 96 139  
Year to date cooling degree days 521 420  
Since 1 June cooling degree days 497 398  
Growing Degree Days 13 (Base 50)    
Moisture  
Dew Point 62 °F    
Average Humidity 95    
Maximum Humidity 100    
Minimum Humidity 90    
Precipitation  
Precipitation 0.04 in 0.11 in 1.51 in (1961)
Month to date precipitation 3.18 3.50  
Year to date precipitation 33.02 31.15  
Snow  
Snow 0.00 in 0.00 in 0.00 in (2002)
Month to date snowfall 0.0 0.0  
Since 1 June snowfall 0.0 0.0  
Since 1 July snowfall 0.0 0.0  
Snow Depth -    
Sea Level Pressure  
Sea Level Pressure 30.04 in    
Wind  
Wind Speed 7 mph (NE)    
Max Wind Speed 14 mph    
Max Gust Speed 19 mph    
Visibility 5 miles    
Events Fog , Rain    
T = Trace of Precipitation, MM = Missing Value Source: NWS Daily Summary

Daily Weather History Graph

Daily Weather History Graph

Search for Another Location

Airport or City:

Trip Planner

Search our weather history database for the weather conditions in past years. The results will help you decide how hot, cold, wet, or windy it might be!

Date:

Astronomy

Aug. 29, 2013 Rise Set
Actual Time 6:09 AM EDT 7:26 PM EDT
Civil Twilight 5:40 AM EDT 7:54 PM EDT
Nautical Twilight 5:05 AM EDT 8:29 PM EDT
Astronomical Twilight 4:29 AM EDT 9:06 PM EDT
Moon No Moon Rise 2:55 PM EDT (8/29)
Length of Visible Light 14h 14m
Length of Day
13h 16m
Last Quarter, 38% of the Moon is Illuminated
Aug 29
Last Quarter
Sep 5
New
Sep 12
First Quarter
Sep 19
Full
Sep 26
Last Quarter

Hourly Weather History & Observations

Time (EDT) Temp. Dew Point Humidity Pressure Visibility Wind Dir Wind Speed Gust Speed Precip Events Conditions
12:26 AM 66.0 °F 64.0 °F 93% 29.99 in 6.0 mi NE 6.9 mph - N/A   Overcast
12:54 AM 64.9 °F 63.0 °F 93% 29.99 in 5.0 mi NE 6.9 mph - N/A   Overcast
1:22 AM 64.0 °F 63.0 °F 96% 30.00 in 2.0 mi ENE 6.9 mph - N/A   Overcast
1:51 AM 64.4 °F 62.6 °F 94% 29.99 in 1.8 mi NNE 5.8 mph - N/A   Overcast
1:54 AM 64.0 °F 63.0 °F 96% 29.98 in 2.0 mi NNE 4.6 mph - N/A   Overcast
2:06 AM 64.0 °F 63.0 °F 96% 29.99 in 4.0 mi NNE 6.9 mph - N/A   Overcast
2:32 AM 64.0 °F 63.0 °F 96% 29.99 in 5.0 mi NE 5.8 mph - N/A   Overcast
2:45 AM 64.0 °F 63.0 °F 96% 29.98 in 6.0 mi NNE 9.2 mph 16.1 mph N/A   Overcast
2:54 AM 64.0 °F 63.0 °F 96% 29.97 in 7.0 mi NNE 6.9 mph - N/A   Overcast
3:17 AM 64.0 °F 63.0 °F 96% 29.97 in 5.0 mi ENE 8.1 mph - 0.01 in Rain Light Rain
3:54 AM 64.0 °F 63.0 °F 96% 29.96 in 4.0 mi NE 4.6 mph - 0.04 in Rain Light Rain
4:03 AM 64.0 °F 63.0 °F 96% 29.97 in 3.0 mi NE 5.8 mph - 0.00 in   Overcast
4:54 AM 63.0 °F 63.0 °F 100% 29.99 in 2.5 mi ENE 10.4 mph - 0.00 in   Overcast
5:05 AM 63.0 °F 63.0 °F 100% 30.01 in 1.2 mi NE 8.1 mph - N/A   Overcast
5:16 AM 63.0 °F 63.0 °F 100% 30.01 in 0.8 mi NE 9.2 mph - N/A   Overcast
5:43 AM 63.0 °F 63.0 °F 100% 30.02 in 0.2 mi ENE 10.4 mph - N/A Fog Fog
5:54 AM 63.0 °F 63.0 °F 100% 30.01 in 0.2 mi ENE 6.9 mph - N/A Fog Fog
6:17 AM 63.0 °F 63.0 °F 100% 30.02 in 1.0 mi ENE 9.2 mph 18.4 mph N/A   Mist
6:24 AM 63.0 °F 63.0 °F 100% 30.03 in 0.2 mi ENE 9.2 mph - N/A Fog Fog
6:54 AM 63.0 °F 63.0 °F 100% 30.03 in 0.2 mi NE 9.2 mph - N/A Fog Fog
7:25 AM 63.0 °F 63.0 °F 100% 30.05 in 0.5 mi NE 5.8 mph - N/A   Overcast
7:33 AM 63.0 °F 63.0 °F 100% 30.05 in 1.5 mi NE 6.9 mph - N/A   Overcast
7:45 AM 63.0 °F 63.0 °F 100% 30.05 in 5.0 mi ENE 8.1 mph - N/A   Overcast
7:54 AM 63.0 °F 63.0 °F 100% 30.05 in 5.0 mi NE 11.5 mph 17.3 mph N/A   Overcast
8:09 AM 63.0 °F 63.0 °F 100% 30.06 in 0.5 mi NE 8.1 mph - 0.00 in Rain Light Rain
8:54 AM 63.0 °F 63.0 °F 100% 30.05 in 0.5 mi NE 6.9 mph - 0.00 in Fog , Rain Light Rain
9:04 AM 63.0 °F 63.0 °F 100% 30.06 in 2.5 mi NE 6.9 mph - 0.00 in   Overcast
9:13 AM 63.0 °F 63.0 °F 100% 30.06 in 1.5 mi NE 8.1 mph - 0.00 in   Overcast
9:18 AM 63.0 °F 63.0 °F 100% 30.06 in 3.0 mi NE 9.2 mph - 0.00 in   Overcast
9:54 AM 64.0 °F 63.0 °F 96% 30.06 in 7.0 mi NE 5.8 mph - 0.00 in   Overcast
10:33 AM 64.9 °F 63.0 °F 93% 30.07 in 10.0 mi NE 6.9 mph - N/A   Overcast
10:54 AM 64.9 °F 63.0 °F 93% 30.07 in 9.0 mi NE 6.9 mph - N/A   Overcast
11:06 AM 64.0 °F 63.0 °F 96% 30.08 in 6.0 mi NE 9.2 mph 17.3 mph N/A   Overcast
11:44 AM 64.9 °F 63.0 °F 93% 30.08 in 9.0 mi NE 12.7 mph 17.3 mph N/A   Overcast
11:54 AM 64.0 °F 63.0 °F 96% 30.07 in 6.0 mi NE 11.5 mph - N/A   Overcast
12:02 PM 64.0 °F 62.1 °F 93% 30.08 in 3.0 mi NE 9.2 mph 19.6 mph N/A   Overcast
12:11 PM 63.0 °F 62.1 °F 97% 30.08 in 0.5 mi NE 8.1 mph - N/A   Overcast
12:51 PM 62.6 °F 60.8 °F 94% 30.08 in 6.0 mi NE 9.2 mph - N/A   Overcast
12:54 PM 62.1 °F 61.0 °F 96% 30.08 in 6.0 mi ENE 11.5 mph - N/A   Overcast
1:23 PM 62.1 °F 60.1 °F 93% 30.08 in 10.0 mi NE 9.2 mph - N/A   Overcast
1:51 PM 62.6 °F 60.8 °F 94% 30.09 in 9.0 mi NE 8.1 mph - N/A   Overcast
1:54 PM 62.1 °F 60.1 °F 93% 30.09 in 8.0 mi NE 9.2 mph - N/A   Overcast
2:20 PM 62.1 °F 60.1 °F 93% 30.08 in 9.0 mi NNE 8.1 mph - N/A   Overcast
2:27 PM 62.1 °F 60.1 °F 93% 30.08 in 8.0 mi NE 11.5 mph - N/A   Overcast
2:54 PM 62.1 °F 60.1 °F 93% 30.08 in 8.0 mi NE 6.9 mph - N/A   Overcast
3:54 PM 61.0 °F 59.0 °F 93% 30.08 in 7.0 mi NNE 8.1 mph - N/A   Overcast
4:54 PM 61.0 °F 59.0 °F 93% 30.08 in 10.0 mi ENE 8.1 mph - N/A   Overcast
5:06 PM 61.0 °F 59.0 °F 93% 30.08 in 10.0 mi ENE 9.2 mph - N/A   Overcast
5:54 PM 61.0 °F 59.0 °F 93% 30.08 in 10.0 mi NE 8.1 mph - N/A   Overcast
6:54 PM 60.1 °F 59.0 °F 96% 30.07 in 10.0 mi ENE 6.9 mph - N/A   Overcast
7:54 PM 60.1 °F 57.9 °F 93% 30.08 in 10.0 mi NE 4.6 mph - N/A   Overcast
8:38 PM 60.1 °F 57.9 °F 93% 30.08 in 10.0 mi ENE 5.8 mph - N/A   Overcast
8:54 PM 60.1 °F 57.9 °F 93% 30.08 in 10.0 mi ENE 4.6 mph - N/A   Overcast
9:54 PM 60.1 °F 57.0 °F 90% 30.09 in 10.0 mi NE 3.5 mph - N/A   Overcast
10:54 PM 60.1 °F 57.0 °F 90% 30.07 in 10.0 mi NE 4.6 mph - N/A   Overcast
11:54 PM 59.0 °F 57.0 °F 93% 30.05 in 10.0 mi Calm Calm - N/A   Overcast